This demonstration page uses our WeatherBlox Daily Observations layout. Learn more.

Left ArrowRight Arrow

39.01783, -85.05884

Hourly Observations for October 11, 2020

Temp ( °F °C ) Dew Point ( °F °C ) Humidity (%) Winds ( mph kmh ) Pressure ( in mb ) Visibility ( mi km ) Precip ( " mm )
12:52 am 00:52 Mostly Cloudy 65 18.3 62 16.7 90 90 SE 6 9 29.93 1014 10 16.0934 0 0
1:52 am 01:52 Cloudy 65 18.3 62 16.7 90 90 E 3 6 29.92 1013 10 16.0934 0 0
2:52 am 02:52 Cloudy 65 18.3 62 16.7 90 90 E 5 7 29.9 1013 10 16.0934 0 0
3:52 am 03:52 Cloudy 64 17.8 62 16.7 93 93 ENE 6 9 29.9 1013 10 16.0934 0 0
4:52 am 04:52 Cloudy 65 18.3 61 16.1 87 87 NE 7 11 29.9 1012 10 16.0934 0 0
5:52 am 05:52 Cloudy 65 18.3 62 16.7 90 90 Calm 29.88 1012 10 16.0934 0.001 0.001
6:52 am 06:52 Mostly Cloudy 65 18.3 61 16.1 87 87 NE 7 11 29.88 1012 10 16.0934 0.01 0.254
7:52 am 07:52 Cloudy 65 18.3 61 16.1 87 87 ENE 7 11 29.88 1012 10 16.0934 0 0
8:52 am 08:52 Cloudy with Light Rain 65 18.3 61 16.1 87 87 ENE 7 11 29.91 1013 10 16.0934 0.001 0.001
9:52 am 09:52 Cloudy 66 18.9 62 16.7 87 87 ENE 10 17 29.93 1013 10 16.0934 0.01 0.254
10:52 am 10:52 Cloudy 68 20 62 16.7 81 81 ENE 15 24 29.92 1013 10 16.0934 0.001 0.001
11:52 am 11:52 Cloudy 69 20.6 62 16.7 78 78 ENE 14 22 29.91 1013 10 16.0934 0 0
12:52 pm 12:52 Cloudy 69 20.6 61 16.1 76 76 ENE 13 20 29.91 1013 10 16.0934 0 0
1:52 pm 13:52 Cloudy 69 20.6 61 16.1 76 76 NE 13 20 29.89 1012 10 16.0934 0 0
2:42 pm 14:42 Cloudy 70 21.1 61 16.1 73 73 ENE 15 24 29.87 1012 10 16.0934 0 0
2:52 pm 14:52 Cloudy 71 21.7 61 16.1 71 71 ENE 13 20 29.88 1012 10 16.0934 0 0
3:27 pm 15:27 Cloudy 72 22.2 62 16.7 71 71 NE 14 22 29.86 1011 10 16.0934 0 0
3:52 pm 15:52 Mostly Cloudy 72 22.2 62 16.7 71 71 ENE 14 22 29.86 1011 10 16.0934 0 0
4:52 pm 16:52 Cloudy 72 22.2 61 16.1 68 68 NE 12 19 29.86 1011 10 16.0934 0 0
5:52 pm 17:52 Mostly Cloudy 71 21.7 61 16.1 71 71 ENE 13 20 29.86 1011 10 16.0934 0 0
6:52 pm 18:52 Mostly Cloudy 71 21.7 61 16.1 71 71 ENE 14 22 29.87 1012 10 16.0934 0 0
7:43 pm 19:43 Cloudy 70 21.1 61 16.1 73 73 ENE 14 22 29.87 1012 10 16.0934 0 0
7:52 pm 19:52 Cloudy 70 21.1 61 16.1 73 73 ENE 14 22 29.88 1012 10 16.0934 0 0
8:52 pm 20:52 Cloudy 69 20.6 60 15.6 73 73 ENE 10 17 29.89 1012 10 16.0934 0 0
9:32 pm 21:32 Cloudy 69 20.6 60 15.6 73 73 E 12 19 29.89 1012 10 16.0934 0 0
9:52 pm 21:52 Cloudy 69 20.6 60 15.6 73 73 ENE 15 24 29.88 1012 10 16.0934 0 0
10:12 pm 22:12 Cloudy 68 20 60 15.6 76 76 E 12 19 29.89 1012 10 16.0934 0 0
10:52 pm 22:52 Cloudy 67 19.4 61 16.1 81 81 E 12 19 29.88 1012 10 16.0934 0 0
11:02 pm 23:02 Cloudy 67 19.4 61 16.1 81 81 E 12 19 29.88 1012 10 16.0934 0 0
11:41 pm 23:41 Cloudy 67 19.4 62 16.7 84 84 ENE 13 20 29.87 1011 10 16.0934 0 0
11:52 pm 23:52 Cloudy 67 19.4 62 16.7 84 84 E 13 20 29.86 1011 10 16.0934 0 0

Powered by AerisWeather